La Junta, CO

6:06 PM MST on February 24, 2017 (GMT -0700)
La Junta Municipal

Weather History for KLHX - January, 2013

Change the Weather History Date:

Friday, January 11, 2013

  Actual Average Record
Temperature  
Mean Temperature 33 °F 31 °F  
Max Temperature 51 °F 45 °F 69 °F (1953)
Min Temperature 14 °F 17 °F -17 °F (1962)
Degree Days  
Heating Degree Days 32 34  
Month to date heating degree days 385 378  
Since 1 July heating degree days 2327 2581  
Cooling Degree Days 0 0  
Month to date cooling degree days 0 0  
Year to date cooling degree days 0 0  
Moisture  
Dew Point 2 °F    
Average Humidity 28    
Maximum Humidity 44    
Minimum Humidity 11    
Precipitation  
Precipitation T in 0.01 in 0.09 in (1985)
Month to date precipitation T  
Year to date precipitation T  
Sea Level Pressure  
Sea Level Pressure 29.51 in    
Wind  
Wind Speed 17 mph (WSW)    
Max Wind Speed 49 mph    
Max Gust Speed 59 mph    
Visibility 7 miles    
Events      
T = Trace of Precipitation, MM = Missing Value Source: NWS Daily Summary

Daily Weather History Graph

Daily Weather History Graph

Search for Another Location

Airport or City:

Trip Planner

Search our weather history database for the weather conditions in past years. The results will help you decide how hot, cold, wet, or windy it might be!

Date:

Astronomy

Jan. 11, 2013 Rise Set
Actual Time 7:09 AM MST 4:54 PM MST
Civil Twilight 6:40 AM MST 5:23 PM MST
Nautical Twilight 6:08 AM MST 5:56 PM MST
Astronomical Twilight 5:36 AM MST 6:27 PM MST
Moon 6:45 AM MST (1/11) 5:14 PM MST (1/11)
Length of Visible Light 10h 42m
Length of Day
9h 44m
Waning Crescent, 0% of the Moon is Illuminated
Jan 11
Waning Crescent
Jan 11
New
Jan 18
First Quarter
Jan 26
Full
Feb 3
Last Quarter

Hourly Weather History & Observations

Time (MST) Temp. Windchill Dew Point Humidity Pressure Visibility Wind Dir Wind Speed Gust Speed Precip Events Conditions
12:53 AM 42.1 °F 33.9 °F 14.0 °F 32% 29.45 in 10.0 mi WSW 17.3 mph - N/A   Clear
1:53 AM 42.1 °F 33.3 °F 12.9 °F 31% 29.45 in 10.0 mi WSW 19.6 mph - N/A   Clear
2:53 AM 34.0 °F 24.2 °F 10.9 °F 38% 29.45 in 10.0 mi West 15.0 mph - N/A   Clear
3:53 AM 37.9 °F 30.9 °F 12.0 °F 35% 29.41 in 10.0 mi SW 10.4 mph - N/A   Clear
4:53 AM 32.0 °F 23.6 °F 10.9 °F 42% 29.42 in 10.0 mi West 10.4 mph - N/A   Clear
5:53 AM 35.1 °F 25.9 °F 15.1 °F 44% 29.40 in 10.0 mi West 13.8 mph - N/A   Clear
6:53 AM 41.0 °F 34.7 °F 18.0 °F 40% 29.37 in 10.0 mi SSW 10.4 mph - N/A   Clear
7:53 AM 42.1 °F 35.2 °F 21.0 °F 43% 29.36 in 10.0 mi South 12.7 mph - N/A   Clear
8:53 AM 48.9 °F - 21.9 °F 35% 29.34 in 10.0 mi South 17.3 mph 26.5 mph N/A   Clear
9:53 AM 50.0 °F - 18.0 °F 28% 29.34 in 10.0 mi WSW 27.6 mph 34.5 mph N/A   Clear
10:32 AM 50.0 °F - 10.4 °F 20% 29.41 in 4.0 mi West 43.7 mph 52.9 mph N/A   Haze
10:38 AM 48.2 °F - 6.8 °F 19% 29.40 in 1.8 mi West 44.9 mph 54.1 mph N/A   Haze
10:53 AM 48.0 °F - 6.1 °F 18% 29.35 in 1.8 mi West 44.9 mph 56.4 mph N/A   Haze
11:00 AM 48.2 °F - 6.8 °F 19% 29.41 in 2.5 mi West 44.9 mph 56.4 mph N/A   Haze
11:12 AM 48.2 °F - 3.2 °F 16% 29.40 in 1.5 mi North - - N/A   Haze
11:22 AM 46.4 °F - 1.4 °F 16% 29.41 in 0.8 mi North - - N/A   Haze
11:35 AM 46.4 °F - -5.8 °F 11% 29.40 in 0.5 mi North - - N/A   Haze
11:48 AM 46.4 °F - -5.8 °F 11% 29.41 in 1.2 mi North - - N/A   Haze
11:53 AM 46.0 °F - -6.0 °F 11% 29.37 in 1.5 mi North - - N/A   Haze
12:00 PM 44.6 °F - -5.8 °F 12% 29.42 in 1.5 mi North - - N/A   Haze
12:05 PM 46.4 °F - -5.8 °F 11% 29.42 in 3.0 mi North - - N/A   Haze
12:48 PM 44.6 °F - -5.8 °F 12% 29.42 in 8.0 mi North - - N/A   Scattered Clouds
1:53 PM 44.1 °F - -4.0 °F 13% 29.42 in 9.0 mi North - - N/A   Mostly Cloudy
2:53 PM 43.0 °F - -7.1 °F 12% 29.49 in 10.0 mi North - - N/A   Clear
3:53 PM 39.9 °F - -4.0 °F 16% 29.57 in 10.0 mi North - - N/A   Clear
4:53 PM 35.1 °F - -0.9 °F 22% 29.65 in 9.0 mi North - - 0.00 in   Clear
5:53 PM 30.0 °F - -2.0 °F 25% 29.70 in 10.0 mi North - - N/A   Clear
6:53 PM 26.1 °F - -9.0 °F 21% 29.74 in 10.0 mi North - - N/A   Clear
7:53 PM 27.0 °F 13.5 °F -9.0 °F 21% 29.75 in 10.0 mi WSW 19.6 mph - N/A   Clear
8:53 PM 21.9 °F 10.4 °F -9.0 °F 25% 29.80 in 10.0 mi NNW 11.5 mph - N/A   Clear
9:00 PM 21.2 °F 9.5 °F -9.4 °F 26% 29.79 in 10.0 mi NW 11.5 mph - N/A   Clear
9:53 PM 19.9 °F 11.1 °F -8.0 °F 29% 29.83 in 10.0 mi West 6.9 mph - N/A   Clear
10:53 PM 17.1 °F 7.6 °F -9.0 °F 31% 29.85 in 10.0 mi West 6.9 mph - N/A   Clear
11:53 PM 16.0 °F 7.4 °F -8.0 °F 34% 29.88 in 10.0 mi Variable 5.8 mph - N/A   Clear